Middleton, WI

4:46 AM CDT on March 23, 2017 (GMT -0500)
Middleton

Weather History for KC29 - May, 2014

Change the Weather History Date:

Friday, May 2, 2014

  Actual Average (KMSN) Record (KMSN)
Temperature  
Mean Temperature 50 °F -  
Max Temperature 55 °F 63 °F 89 °F (1959)
Min Temperature 45 °F 39 °F 23 °F (1978)
Degree Days  
Heating Degree Days 15    
Moisture  
Dew Point 41 °F    
Average Humidity 74    
Maximum Humidity 87    
Minimum Humidity 54    
Precipitation  
Precipitation 0.01 in - - ()
Sea Level Pressure  
Sea Level Pressure 29.73 in    
Wind  
Wind Speed 9 mph (WSW)    
Max Wind Speed 13 mph    
Max Gust Speed 20 mph    
Visibility 10 miles    
Events      
Averages and records for this station are not official NWS values.
T = Trace of Precipitation, MM = Missing Value Source: NWS Daily Summary

Daily Weather History Graph

Daily Weather History Graph

Search for Another Location

Airport or City:

Trip Planner

Search our weather history database for the weather conditions in past years. The results will help you decide how hot, cold, wet, or windy it might be!

Date:

Astronomy

May. 02, 2014 Rise Set
Actual Time 5:50 AM CDT 8:00 PM CDT
Civil Twilight 5:19 AM CDT 8:31 PM CDT
Nautical Twilight 4:40 AM CDT 9:10 PM CDT
Astronomical Twilight 3:58 AM CDT 9:53 PM CDT
Moon 8:25 AM CDT (5/2) 11:24 PM CDT (5/2)
Length of Visible Light 15h 12m
Length of Day
14h 10m
Waxing Crescent, 12% of the Moon is Illuminated
May 2
Waxing Crescent
May 6
First Quarter
May 14
Full
May 21
Last Quarter
May 28
New

Hourly Weather History & Observations

Time (CDT) Temp. Windchill Dew Point Humidity Pressure Visibility Wind Dir Wind Speed Gust Speed Precip Events Conditions
12:10 AM 46.8 °F - 41.9 °F 83% 29.80 in 10.0 mi WNW 11.5 mph - N/A   Overcast
12:30 AM 46.4 °F 41.5 °F 41.9 °F 84% 29.80 in 10.0 mi WNW 10.4 mph - N/A   Overcast
12:50 AM 46.4 °F 42.4 °F 41.9 °F 84% 29.80 in 10.0 mi WNW 8.1 mph - N/A   Overcast
1:10 AM 46.2 °F 42.2 °F 41.9 °F 85% 29.79 in 10.0 mi WNW 8.1 mph - N/A   Overcast
1:30 AM 46.0 °F 43.1 °F 41.5 °F 84% 29.79 in 10.0 mi WNW 5.8 mph - N/A   Overcast
1:50 AM 46.0 °F 43.9 °F 41.5 °F 84% 29.78 in 10.0 mi West 4.6 mph - N/A   Overcast
2:10 AM 45.9 °F 42.3 °F 41.2 °F 84% 29.77 in 10.0 mi West 6.9 mph - N/A   Overcast
2:30 AM 45.9 °F 42.3 °F 41.2 °F 84% 29.77 in 10.0 mi West 6.9 mph - N/A   Overcast
2:50 AM 45.7 °F 42.0 °F 41.4 °F 85% 29.77 in 10.0 mi West 6.9 mph - N/A   Overcast
3:10 AM 45.7 °F 42.7 °F 41.2 °F 84% 29.77 in 10.0 mi West 5.8 mph - N/A   Overcast
3:30 AM 45.7 °F 41.5 °F 41.5 °F 85% 29.77 in 10.0 mi West 8.1 mph - N/A   Overcast
3:50 AM 45.7 °F 42.0 °F 41.9 °F 87% 29.77 in 10.0 mi West 6.9 mph - N/A   Overcast
4:10 AM 45.5 °F 40.8 °F 41.5 °F 86% 29.77 in 10.0 mi West 9.2 mph - N/A   Overcast
4:30 AM 45.5 °F 40.3 °F 41.4 °F 85% 29.77 in 10.0 mi West 10.4 mph - N/A   Overcast
4:50 AM 45.5 °F 40.3 °F 41.2 °F 85% 29.77 in 10.0 mi West 10.4 mph - N/A   Overcast
5:10 AM 45.5 °F 41.3 °F 41.2 °F 85% 29.77 in 10.0 mi West 8.1 mph - N/A   Overcast
5:30 AM 45.5 °F 40.8 °F 41.0 °F 84% 29.77 in 10.0 mi West 9.2 mph - N/A   Overcast
5:50 AM 45.5 °F 41.3 °F 41.0 °F 84% 29.77 in 10.0 mi West 8.1 mph - N/A   Overcast
6:10 AM 45.5 °F 40.8 °F 41.0 °F 84% 29.77 in 10.0 mi West 9.2 mph - N/A   Overcast
6:30 AM 45.5 °F 41.8 °F 40.6 °F 83% 29.78 in 10.0 mi West 6.9 mph - N/A   Overcast
6:50 AM 45.9 °F 42.3 °F 40.8 °F 83% 29.78 in 10.0 mi West 6.9 mph - N/A   Overcast
7:10 AM 46.0 °F 42.5 °F 41.0 °F 83% 29.78 in 10.0 mi West 6.9 mph - N/A   Overcast
7:30 AM 46.6 °F - 41.5 °F 83% 29.78 in 10.0 mi West 8.1 mph - N/A   Overcast
7:50 AM 46.9 °F - 41.4 °F 81% 29.78 in 10.0 mi West 8.1 mph - N/A   Overcast
8:10 AM 47.1 °F - 40.5 °F 78% 29.78 in 10.0 mi West 8.1 mph - N/A   Overcast
8:30 AM 47.3 °F - 40.1 °F 76% 29.78 in 10.0 mi West 5.8 mph 9.2 mph N/A   Overcast
8:50 AM 48.0 °F - 39.7 °F 73% 29.77 in 10.0 mi West 9.2 mph - N/A   Overcast
9:10 AM 48.2 °F - 38.8 °F 70% 29.78 in 10.0 mi West 10.4 mph - N/A   Overcast
9:30 AM 48.2 °F - 38.8 °F 70% 29.77 in 10.0 mi West 8.1 mph - N/A   Overcast
9:50 AM 48.2 °F - 38.1 °F 68% 29.77 in 10.0 mi West 10.4 mph - N/A   Overcast
10:10 AM 48.2 °F - 38.5 °F 69% 29.77 in 10.0 mi West 10.4 mph - N/A   Overcast
10:30 AM 48.4 °F - 38.7 °F 69% 29.77 in 10.0 mi West 11.5 mph - N/A   Overcast
10:50 AM 47.8 °F - 38.8 °F 71% 29.77 in 10.0 mi West 8.1 mph - N/A   Overcast
11:10 AM 48.9 °F - 38.5 °F 67% 29.77 in 10.0 mi WSW 11.5 mph - N/A   Overcast
11:30 AM 49.6 °F - 38.7 °F 66% 29.77 in 10.0 mi West 9.2 mph - N/A   Overcast
11:50 AM 48.6 °F - 38.3 °F 68% 29.77 in 10.0 mi West 12.7 mph - N/A   Overcast
12:10 PM 49.5 °F - 39.2 °F 68% 29.77 in 10.0 mi West 12.7 mph 17.3 mph N/A   Overcast
12:30 PM 51.8 °F - 38.3 °F 60% 29.76 in 10.0 mi WNW 11.5 mph 19.6 mph N/A   Overcast
12:50 PM 50.7 °F - 37.9 °F 62% 29.76 in 10.0 mi West 11.5 mph - N/A   Overcast
1:10 PM 50.7 °F - 38.7 °F 63% 29.76 in 10.0 mi West 8.1 mph - N/A   Overcast
1:30 PM 50.5 °F - 37.9 °F 62% 29.75 in 10.0 mi West 9.2 mph - N/A   Overcast
1:50 PM 50.4 °F - 38.1 °F 63% 29.74 in 10.0 mi WSW 5.8 mph - N/A   Overcast
2:10 PM 52.7 °F - 38.5 °F 58% 29.73 in 10.0 mi SW 9.2 mph - N/A   Overcast
2:30 PM 51.8 °F - 37.8 °F 59% 29.73 in 10.0 mi SW 9.2 mph 17.3 mph N/A   Overcast
2:50 PM 53.1 °F - 38.5 °F 58% 29.72 in 10.0 mi West 10.4 mph - N/A   Overcast
3:10 PM 52.9 °F - 37.6 °F 56% 29.71 in 10.0 mi SW 10.4 mph - N/A   Overcast
3:30 PM 53.6 °F - 37.4 °F 54% 29.71 in 10.0 mi WSW 8.1 mph - N/A   Overcast
3:50 PM 53.2 °F - 37.9 °F 56% 29.71 in 10.0 mi WSW 12.7 mph - N/A   Overcast
4:10 PM 52.7 °F - 38.7 °F 59% 29.71 in 10.0 mi WSW 6.9 mph - N/A   Overcast
4:30 PM 53.1 °F - 38.8 °F 59% 29.70 in 10.0 mi SW 5.8 mph - N/A   Overcast
5:10 PM 55.2 °F - 40.6 °F 58% 29.70 in 10.0 mi SSW 12.7 mph 16.1 mph N/A   Mostly Cloudy
5:30 PM 54.7 °F - 39.7 °F 57% 29.70 in 10.0 mi SW 10.4 mph - N/A   Mostly Cloudy
5:50 PM 54.1 °F - 40.1 °F 59% 29.69 in 10.0 mi SSW 8.1 mph - N/A   Overcast
6:10 PM 53.6 °F - 41.0 °F 62% 29.68 in 10.0 mi South 6.9 mph - N/A   Overcast
6:30 PM 53.8 °F - 41.5 °F 63% 29.68 in 10.0 mi SSE 9.2 mph - N/A   Overcast
6:50 PM 53.1 °F - 41.5 °F 65% 29.67 in 10.0 mi SSE 8.1 mph - N/A   Overcast
7:10 PM 52.9 °F - 42.3 °F 67% 29.66 in 10.0 mi SSE 9.2 mph - N/A   Overcast
7:35 PM 52.5 °F - 42.4 °F 69% 29.66 in 10.0 mi SE 5.8 mph - N/A   Overcast
7:50 PM 51.8 °F - 43.2 °F 72% 29.65 in 10.0 mi ESE 5.8 mph - N/A   Overcast
8:10 PM 52.0 °F - 43.0 °F 71% 29.66 in 10.0 mi SSE 5.8 mph - N/A   Overcast
8:30 PM 51.4 °F - 43.7 °F 75% 29.66 in 10.0 mi South 6.9 mph - 0.01 in   Overcast
8:50 PM 50.5 °F - 44.6 °F 80% 29.65 in 10.0 mi SSE 6.9 mph - 0.01 in   Overcast
9:10 PM 50.0 °F - 44.4 °F 81% 29.65 in 10.0 mi SSE 6.9 mph - N/A   Overcast
9:30 PM 49.3 °F - 43.9 °F 82% 29.65 in 10.0 mi SSE 4.6 mph - N/A   Mostly Cloudy
9:50 PM 50.0 °F - 44.2 °F 81% 29.65 in 10.0 mi South 4.6 mph - N/A   Overcast
10:10 PM 49.5 °F - 44.6 °F 83% 29.65 in 10.0 mi SSW 4.6 mph - N/A   Overcast
10:30 PM 49.3 °F - 44.6 °F 84% 29.64 in 10.0 mi SSW 5.8 mph - N/A   Overcast
10:50 PM 49.3 °F - 44.6 °F 84% 29.63 in 10.0 mi SW 6.9 mph - N/A   Mostly Cloudy
11:10 PM 49.3 °F - 43.9 °F 82% 29.63 in 10.0 mi SW 6.9 mph - N/A   Overcast
11:30 PM 49.1 °F - 43.9 °F 82% 29.63 in 10.0 mi SW 8.1 mph - N/A   Scattered Clouds
11:50 PM 49.1 °F - 43.7 °F 82% 29.62 in 10.0 mi WSW 6.9 mph - N/A   Scattered Clouds